Observations for Trim Market St
| Time | AQI | Temp °C | Hum % | Pres Pa | CO μg/m³ | H₂S μg/m³ | NO μg/m³ | NO₂ μg/m³ | O₃ μg/m³ | SO₂ μg/m³ | PM1 μg/m³ | PM2.5 μg/m³ | PM10 μg/m³ |
|---|---|---|---|---|---|---|---|---|---|---|---|---|---|
| Wednesday 15 July 2026 | |||||||||||||
| 11:05 | 1 | 33.1 | 38 | 65,968 | 0 | 0 | 0 | 0 | 14.24 | 0 | 10.69 | 14.16 | 19.81 |
| 11:04 | 1 | 33 | 38 | 65,933 | 0 | 0 | 0 | 0 | 8.41 | 0 | 7.84 | 15.22 | 20.62 |
| 11:03 | 1 | 33 | 38 | 65,927 | 0 | 0 | 0 | 0 | 19.52 | 0 | 9.26 | 14.67 | 19.79 |
| 11:02 | 1 | 32.9 | 38 | 65,886 | 0 | 0 | 0 | 0 | 15.24 | 0 | 10.69 | 15.73 | 22.24 |
| 11:01 | 1 | 32.9 | 38 | 65,894 | 0 | 0 | 0 | 0 | 12.58 | 0 | 9.98 | 14.14 | 21.42 |
| 11:00 | 1 | 32.8 | 38 | 65,872 | 0 | 0 | 0 | 0 | 17.01 | 0 | 9.26 | 16.26 | 23.05 |
| 10:59 | 1 | 32.8 | 38 | 65,815 | 0 | 0 | 0 | 0 | 0 | 0 | 10.69 | 16.23 | 25.46 |
| 10:56 | 1 | 32.7 | 39 | 65,801 | 0 | 0 | 0 | 0 | 9.52 | 0 | 9.98 | 16.73 | 22.97 |
| 10:55 | 1 | 32.7 | 39 | 65,784 | 0 | 0 | 0 | 0 | 8.8 | 0 | 10.69 | 16.19 | 22.95 |
| 10:53 | 1 | 32.5 | 40 | 65,684 | 0 | 0 | 0 | 0 | 6.56 | 0 | 7.84 | 12.43 | 18.02 |
| 10:47 | 1 | 31.9 | 41 | 65,386 | 0 | 0 | 0 | 0 | 2.91 | 0 | 9.98 | 13.94 | 19.55 |
| 10:41 | 1 | 31.3 | 42 | 64,991 | 0.03 | 0 | 0 | 0 | 3.82 | 0 | 10.69 | 14.36 | 19.41 |
| 10:39 | 1 | 31.1 | 43 | 64,776 | 0.09 | 0 | 0 | 0 | 2.26 | 0 | 10.69 | 14.84 | 21.73 |
| 10:38 | 1 | 30.9 | 43 | 64,657 | 0.1 | 0 | 0 | 0.55 | 4.8 | 0 | 12.11 | 17.44 | 26.42 |
| 10:37 | 1 | 30.8 | 43 | 64,534 | 0.11 | 0 | 0 | 0 | 3.52 | 0 | 9.98 | 13.76 | 18.54 |
| 10:36 | 1 | 30.8 | 44 | 64,374 | 0.14 | 0 | 0 | 0 | 0.09 | 0 | 11.4 | 16.87 | 23.21 |
| 10:35 | 1 | 30.7 | 44 | 64,163 | 0.21 | 0 | 0 | 0 | 5.32 | 0 | 10.69 | 14.76 | 20.06 |
| 10:33 | 1 | 30.4 | 44 | 63,835 | 0.19 | 0 | 0 | 0 | 1.48 | 0 | 10.69 | 14.19 | 20 |
| 10:32 | 1 | 30.3 | 45 | 63,543 | 0.21 | 0 | 0 | 0 | 0 | 0 | 7.84 | 13.64 | 19.18 |
| 10:30 | 1 | 30.1 | 45 | 62,884 | 0.21 | 0 | 0 | 0 | 5.47 | 0 | 10.69 | 16.72 | 24.53 |